This is the latest recevied weather packets stored in our database for station/object K7TSD. If no packets are shown the sender has not sent any weather packets the latest 10 day(s).
| Time | Temp. | Humidity | Pressure | Rain* | Wind** | Luminosity | Snow |
|---|---|---|---|---|---|---|---|
| 1778199205 | 12.22° C | 69% | 1010.6 hPa | 0 mm | - | 87 W/m² | - |
| 1778198901 | 12.22° C | 68% | 1010.4 hPa | 0 mm | - | 87 W/m² | - |
| 1778198598 | 12.78° C | 68% | 1010.3 hPa | 0 mm | - | 98 W/m² | - |
| 1778198295 | 12.78° C | 68% | 1010 hPa | 0 mm | - | 243 W/m² | - |
| 1778197992 | 13.33° C | 66% | 1010.1 hPa | 0 mm | - | 341 W/m² | - |
| 1778197689 | 12.78° C | 67% | 1010 hPa | 0 mm | - | 332 W/m² | - |
| 1778197385 | 13.33° C | 69% | 1010.4 hPa | 0 mm | - | 397 W/m² | - |
| 1778197082 | 12.78° C | 69% | 1010.2 hPa | 0 mm | - | 327 W/m² | - |
| 1778196780 | 12.78° C | 70% | 1010.6 hPa | 0 mm | - | 217 W/m² | - |
| 1778196478 | 12.78° C | 70% | 1010.3 hPa | 0 mm | - | 506 W/m² | - |
| 1778196174 | 12.78° C | 71% | 1010.4 hPa | 0 mm | - | 478 W/m² | - |
| 1778195870 | 12.22° C | 71% | 1010.1 hPa | 0 mm | - | 358 W/m² | - |
| 1778195567 | 12.22° C | 73% | 1010.3 hPa | 0 mm | - | 327 W/m² | - |
| 1778195264 | 12.78° C | 72% | 1010.2 hPa | 0 mm | - | 403 W/m² | - |
| 1778194962 | 12.22° C | 73% | 1010.3 hPa | 0 mm | - | 444 W/m² | - |
| 1778194661 | 12.22° C | 73% | 1010.3 hPa | 0 mm | - | 371 W/m² | - |
| 1778194357 | 12.22° C | 74% | 1010.6 hPa | 0 mm | - | 420 W/m² | - |
| 1778194053 | 11.67° C | 74% | 1010.3 hPa | 0 mm | - | 363 W/m² | - |
| 1778193750 | 12.22° C | 76% | 1010.2 hPa | 0 mm | - | 301 W/m² | - |
| 1778193447 | 12.78° C | 75% | 1010.1 hPa | 0 mm | - | 555 W/m² | - |
| 1778193143 | 11.67° C | 77% | 1009.9 hPa | 0 mm | - | 352 W/m² | - |
| 1778192840 | 11.67° C | 76% | 1010.2 hPa | 0 mm | - | 382 W/m² | - |
| 1778192536 | 11.67° C | 78% | 1010.2 hPa | 0 mm | - | 160 W/m² | - |
| 1778192233 | 11.67° C | 79% | 1010.3 hPa | 0 mm | - | 603 W/m² | - |
| 1778191929 | 12.22° C | 78% | 1010 hPa | 0 mm | - | 556 W/m² | - |
* Rain latest hour (hover to see other rain measurements)
** Current wind speed in m/s (hover to see current wind gust speed)